Regional Weather Roundup
Issued by NWS State College, PA

Home | Current Version | Previous Version | Text Only | Print | Product List | Glossary Off
Versions: 1 2 3 4 5 6 7 8 9 10 11 12 13 14 15 16 17 18 19 20 21 22 23 24 25 26 27 28 29 30 31 32 33 34 35 36 37 38 39 40 41 42 43 44 45 46 47 48 49 50

000
ASUS41 KCTP 042210
RWRCTP

REGIONAL WEATHER ROUNDUP
NATIONAL WEATHER SERVICE STATE COLLEGE PA
600 PM EDT TUE AUG 04 2015

Note: "fair" indicates few or no clouds below 12,000 feet with no
significant weather and/or obstructions to visibility.

* = STATION THAT DOES NOT REPORT PRECIPITATION /E.G. RAIN...SNOW...ETC/
    THUNDER OR FOG.

PAZ002>004-007>009-013>016-020>023-029>032-042300-
WESTERN PENNSYLVANIA

CITY           SKY/WX    TMP DP  RH WIND       PRES   REMARKS
ERIE           MOSUNNY   80  52  37 W14G26    29.92R
MEADVILLE      MOSUNNY   78  50  37 W9G22     29.95S
FRANKLIN*      MOSUNNY   79  52  38 W10       29.97S
NEW CASTLE     MOCLDY    84  54  35 SW10      29.95S
BEAVER COUNTY  MOSUNNY   81  54  39 W3        29.96S
BUTLER*        MOSUNNY   81  52  36 W8        29.97F
PITTSBURGH INT MOSUNNY   81  52  36 W9        29.95F
PITTSBURGH     MOSUNNY   80  49  33 W8        29.95S
INDIANA*       SUNNY     81  54  39 VRB6G13   29.99S
LATROBE        MOSUNNY   81  54  39 W14       29.96F
WASHINGTON CO* NOT AVBL
$$

PAZ004>006-010>012-017>019-024>028-033>037-041-042-045-046-049>053-042300-
CENTRAL PENNSYLVANIA

CITY           SKY/WX    TMP DP  RH WIND       PRES   REMARKS
BRADFORD       MOSUNNY   72  53  51 NW8       29.97S
DUBOIS         MOSUNNY   78  51  38 W9        29.96S
CLEARFIELD     MOSUNNY   79  53  40 W9        29.95F
JOHNSTOWN      MOSUNNY   76  50  40 W12       30.00S
ALTOONA        SUNNY     79  53  40 W9        29.96F
STATE COLLEGE  MOSUNNY   79  54  41 W8        29.94F
WILLIAMSPORT   SUNNY     85  52  32 W12       29.88S
SELINSGROVE    SUNNY     83  55  38 VRB6      29.90S
FT INDIANTOWN  SUNNY     84  54  35 NW8       29.90S
CAPITAL CITY   SUNNY     88  47  24 NW9       29.89S
HARRISBURG     MOSUNNY   88  50  27 NW12      29.88S
YORK           SUNNY     86  61  42 NW6       29.90S
$$

PAZ038>040-043-044-047-048-054-055-060>062-067>071-042300-
EASTERN PENNSYLVANIA

CITY           SKY/WX    TMP DP  RH WIND       PRES   REMARKS
SCRANTON       PTSUNNY   80  58  46 NW10      29.90R
MOUNT POCONO   SUNNY     78  52  40 W13       29.95R
ALLENTOWN      SUNNY     84  54  35 W16       29.89S
QUAKERTOWN*    CLEAR     84  57  39 W7        29.91R
READING        SUNNY     85  53  33 NW15      29.88S
LANCASTER      SUNNY     85  58  39 W10       29.89S
COATESVILLE    CLEAR     84  63  48 W8        29.92S
POTTSTOWN      SUNNY     85  54  34 VRB7      29.90S
BLUE BELL      SUNNY     86  55  35 W7        29.88S
DOYLESTOWN     MOSUNNY   85  52  32 SW10G16   29.88S
WILLOW GROVE   NOT AVBL
NORTH PHILA    SUNNY     90  49  24 W14G24    29.89R
PHILADELPHIA   MOSUNNY   90  56  31 W18       29.88S
$$


USA.gov is the U.S. government's official web portal to all federal, state and local government web resources and services.